Theta_e
326 330 335 336 337 339 341 341 341 341 340 339 338 338 338 337 337 336 337 337 338 338 338 338 338 338 338 338 338 338 338 338 336 333 331 331 333 333 333 333 334 335 335 336 337 338 339 339 339 339 339 340 341 340 338 338 338 338 336 334 328 326 325 324 331 337 338 339 340 340 340 340 340 341 340 339 337 336 334 334 335 334 331 329 330
323 329 335 336 337 339 341 341 341 341 340 339 337 338 338 336 335 334 334 335 336 336 337 338 337 337 337 337 338 338 337 338 337 336 335 334 334 334 334 333 335 336 335 335 336 337 338 339 339 339 340 339 339 338 337 337 337 336 336 334 329 327 327 323 325 332 337 337 337 338 337 337 338 340 340 339 338 337 336 335 333 331 329 326 325
323 330 334 336 337 338 340 340 341 341 340 340 338 339 338 335 333 331 332 332 333 334 335 337 338 337 338 338 338 337 336 336 337 337 336 335 335 335 334 334 335 336 336 335 336 337 338 339 339 339 339 337 337 336 335 335 335 334 335 333 330 328 328 326 323 326 332 335 335 335 335 337 338 340 340 338 337 336 336 334 331 330 328 325 324
324 329 332 336 337 338 340 339 340 340 340 339 340 339 338 337 334 331 330 330 332 335 335 337 338 338 339 339 339 338 336 336 337 337 336 335 335 335 334 334 335 337 337 336 337 338 339 338 338 338 337 336 336 335 334 334 333 333 333 332 331 330 329 328 326 325 327 329 332 333 334 338 340 341 340 337 336 335 336 335 333 331 328 327 325
323 329 331 335 336 338 339 339 340 339 340 339 340 339 339 339 337 335 331 330 334 336 336 337 338 338 339 339 339 338 338 338 338 338 337 336 336 336 335 335 336 336 337 337 338 338 338 338 337 337 336 336 335 334 333 333 332 333 333 332 331 330 329 329 328 327 327 326 327 329 333 337 339 341 340 338 337 336 337 337 335 333 329 327 327
323 327 331 334 336 337 337 339 340 339 340 339 340 339 339 339 338 338 334 332 335 337 337 338 339 339 339 339 339 338 338 338 338 337 336 336 336 336 335 335 336 337 338 338 338 337 337 337 336 336 335 335 333 332 332 333 332 333 333 332 331 330 329 329 328 328 328 328 327 326 331 335 336 339 341 340 338 338 338 338 336 334 332 328 326
323 326 331 333 336 336 337 339 339 339 340 340 339 339 339 339 338 338 336 335 337 337 338 339 339 339 339 339 339 338 338 338 337 336 336 335 335 336 335 336 336 337 337 337 336 336 336 336 336 335 334 334 332 331 331 332 332 332 332 331 331 330 329 328 328 328 328 329 329 327 328 331 334 336 339 340 339 338 338 339 337 334 331 329 326
324 327 331 333 335 335 336 336 338 339 339 339 338 338 338 338 338 338 337 336 337 338 338 338 339 339 338 339 338 338 338 337 336 335 334 334 334 334 335 336 335 335 335 335 335 335 335 335 335 334 334 333 331 331 330 330 329 329 329 329 328 327 327 326 326 326 327 327 328 329 328 328 331 335 337 338 339 338 337 337 336 333 331 330 327
324 328 330 333 334 334 335 335 337 338 338 338 337 337 338 338 338 337 336 336 338 338 338 338 338 339 338 338 338 338 337 336 335 334 333 332 332 333 333 334 334 334 333 332 332 333 333 333 333 333 333 332 330 328 327 326 325 325 324 323 322 320 318 318 318 318 320 321 323 326 329 328 328 331 334 337 337 336 335 335 333 332 333 333 331
325 328 330 332 332 334 334 335 336 337 338 337 337 337 337 338 338 337 337 337 338 337 337 337 338 338 337 338 337 337 336 335 334 333 331 331 331 331 331 332 332 332 331 330 330 331 331 331 331 331 331 328 326 323 322 321 319 318 315 313 310 308 306 306 306 307 308 311 315 319 326 329 327 327 330 334 336 335 333 333 333 334 335 335 334
325 327 328 331 332 333 333 335 335 335 336 335 336 337 337 338 337 337 337 337 337 338 338 337 338 338 337 337 336 336 335 334 333 331 330 329 329 329 329 330 330 330 330 329 328 328 328 327 326 325 324 321 318 316 314 312 309 307 304 302 301 300 300 300 300 301 302 303 307 313 320 326 328 327 330 333 334 334 333 332 333 335 336 335 336
326 327 328 331 332 332 333 334 335 334 334 334 335 336 338 338 337 338 337 337 337 338 337 337 337 336 336 335 335 334 333 332 331 329 327 327 327 327 327 328 329 329 329 328 327 326 324 321 318 316 313 310 308 306 304 302 301 300 299 299 299 299 299 299 299 300 300 301 304 309 316 322 326 329 331 333 333 333 333 333 335 336 336 336 337
327 328 329 332 331 332 332 333 334 333 334 335 335 335 337 337 338 337 337 337 336 337 336 336 336 335 334 333 332 331 331 330 329 327 326 326 326 326 326 327 328 327 327 326 325 323 320 315 310 306 304 302 301 300 299 299 299 299 299 299 299 299 299 299 299 300 300 301 303 308 314 319 324 328 331 332 331 332 332 333 334 335 336 336 336
328 329 330 332 332 332 331 332 333 332 334 335 334 335 337 336 336 336 336 336 335 334 334 334 333 332 332 332 331 330 330 328 326 325 325 325 324 324 324 325 325 324 324 323 321 318 313 308 303 300 299 299 299 299 299 299 299 299 299 299 299 299 299 299 299 300 300 301 302 307 314 319 323 327 329 330 330 331 331 331 332 333 334 334 334
329 329 330 332 332 332 332 332 331 333 333 333 333 334 335 335 335 335 335 334 333 332 331 332 331 330 329 330 330 329 329 327 325 324 324 324 323 323 321 321 321 320 320 318 316 312 307 302 299 299 299 299 299 299 299 299 299 299 299 298 299 298 298 298 299 299 300 301 302 306 313 318 322 325 327 328 328 329 329 329 330 330 331 332 332
330 330 330 332 332 333 332 332 332 333 332 331 332 333 332 333 334 334 333 332 332 330 330 329 328 329 328 328 328 327 327 325 324 323 323 323 322 320 316 314 314 315 314 312 309 304 301 299 299 299 299 299 299 299 299 299 299 299 299 299 298 298 298 298 298 298 299 302 303 305 311 316 321 324 325 326 327 327 327 327 328 328 328 329 330
330 331 331 331 332 332 332 332 332 332 331 330 331 332 332 332 332 332 331 331 330 329 329 329 328 328 327 327 326 326 325 324 323 322 322 321 319 315 310 308 308 308 306 305 302 300 299 299 299 299 299 299 299 299 299 299 299 299 299 299 298 298 298 298 298 298 298 300 303 305 309 315 319 322 324 324 325 325 325 325 326 326 326 326 327
330 331 331 331 332 332 332 331 332 332 331 329 329 329 330 331 330 330 330 330 329 329 328 328 327 327 326 326 325 325 324 323 322 322 321 319 316 311 307 306 305 304 302 300 299 299 299 298 299 299 299 299 299 299 298 299 299 299 299 299 299 298 298 298 298 297 297 297 301 305 308 313 317 321 322 322 323 322 322 323 324 324 324 324 324
329 330 330 331 331 331 331 331 330 330 328 327 327 326 328 330 330 330 330 329 329 328 328 327 327 326 325 325 325 324 323 322 321 321 319 316 313 310 308 307 307 306 302 300 299 298 298 298 298 298 298 298 298 298 298 298 298 298 298 298 298 298 298 298 297 297 297 297 298 302 308 313 316 319 321 321 320 320 320 320 321 321 322 322 322
328 328 329 329 329 329 328 328 327 327 326 326 327 326 328 330 329 330 329 329 328 327 327 326 326 325 325 325 324 323 322 321 320 318 316 314 311 309 310 310 309 306 302 299 298 298 298 298 298 298 298 298 298 298 298 298 298 298 297 297 297 297 297 297 297 297 297 297 297 298 304 310 314 317 319 319 318 317 318 318 318 319 319 320 320
328 328 328 327 327 327 326 325 325 325 326 326 327 327 328 329 329 329 329 328 327 327 326 326 325 325 324 324 323 322 320 319 317 314 313 311 308 306 309 310 307 303 300 298 298 297 298 297 297 298 298 298 298 298 298 298 297 297 297 297 296 296 296 296 296 296 296 296 296 297 300 305 310 315 317 316 316 315 315 315 316 316 317 317 317
327 327 327 327 327 326 326 325 325 325 325 326 327 327 327 329 328 328 328 327 327 327 326 326 325 324 323 323 322 321 318 315 313 311 310 308 305 304 306 307 304 301 299 297 297 297 297 297 298 298 298 298 298 298 298 297 297 297 296 296 296 296 296 296 296 296 296 296 296 296 297 300 305 312 315 315 315 313 313 313 313 314 315 316 314
325 327 327 327 327 326 326 325 325 325 325 326 327 326 327 327 327 327 327 327 327 326 326 325 325 324 322 321 320 318 315 312 310 308 307 305 303 303 305 307 304 300 298 298 297 297 297 298 298 298 298 298 298 298 298 297 297 296 296 296 296 296 296 296 296 295 296 295 295 295 296 298 302 310 314 314 315 313 314 316 316 316 317 316 315
324 325 326 327 327 326 326 325 325 325 325 325 326 325 325 325 326 326 326 326 326 326 325 325 324 323 321 319 317 316 313 310 308 306 305 304 302 302 304 306 303 299 298 298 297 297 298 298 298 299 299 299 298 298 298 297 297 296 296 296 296 296 296 296 295 295 295 295 295 295 295 296 298 307 313 314 315 314 315 318 318 318 318 318 318
322 323 324 325 326 326 326 325 325 324 324 324 324 324 324 324 325 325 325 325 325 325 325 324 324 322 320 318 316 314 311 309 306 305 305 302 301 301 302 301 299 298 298 297 297 298 298 298 299 299 299 299 298 298 297 297 296 296 296 295 295 295 295 295 295 295 295 295 295 295 295 295 296 302 311 314 315 315 315 317 317 317 318 318 318
320 321 323 323 325 326 326 326 325 324 324 323 323 323 323 324 324 325 324 324 325 325 324 324 322 320 319 317 314 312 309 307 305 304 303 301 300 299 299 298 298 297 297 297 297 297 297 298 299 299 299 298 298 297 296 296 295 295 295 295 295 295 295 294 295 294 294 294 294 295 294 295 295 299 308 313 315 315 315 317 316 317 317 317 317
319 320 320 321 323 324 325 325 325 325 324 324 323 323 322 322 323 324 324 323 323 324 324 323 321 319 318 316 312 309 307 306 304 303 302 300 299 298 298 297 297 297 297 297 296 297 297 298 299 298 298 297 297 296 295 295 294 294 294 294 294 294 294 294 294 294 294 294 294 294 294 295 295 298 306 312 315 315 315 316 316 317 317 316 317
317 318 319 320 321 323 324 325 325 325 324 324 323 323 322 321 322 323 323 322 322 323 323 322 320 319 317 314 310 307 305 303 302 301 300 298 297 297 297 296 296 296 296 296 296 297 298 298 298 298 297 296 296 295 294 294 294 294 294 294 294 294 294 293 293 293 293 293 293 294 294 294 294 298 305 312 314 315 315 316 316 315 316 315 316
316 317 317 318 319 321 322 324 325 325 325 324 324 323 322 321 321 322 323 322 322 322 322 321 319 317 315 312 309 307 304 302 300 299 298 297 296 296 296 296 296 296 296 296 296 297 298 298 298 297 297 296 295 294 294 294 294 293 293 293 293 293 293 293 293 293 293 293 293 294 294 294 295 297 303 309 313 314 314 315 314 314 314 315 315
315 316 316 317 318 319 321 322 323 324 324 324 324 323 322 322 321 321 321 322 322 321 321 320 317 315 313 310 307 306 303 301 299 298 297 296 296 296 296 296 296 296 296 296 297 297 298 298 298 297 296 296 295 294 294 293 293 293 293 293 293 293 293 293 293 293 293 293 294 294 295 295 296 297 301 306 310 312 312 313 313 313 313 314 314
313 313 315 316 316 318 319 319 321 323 323 323 323 323 322 322 321 320 320 320 320 320 319 317 315 313 309 307 306 305 303 300 298 297 296 296 296 296 296 296 295 296 296 296 297 297 297 298 298 297 296 295 294 294 293 293 293 293 293 293 293 293 293 293 293 292 293 293 294 295 295 296 296 297 301 305 308 309 310 311 311 311 312 313 312
312 312 313 314 314 316 317 318 320 321 322 322 322 322 322 321 321 320 319 319 319 318 318 316 313 310 307 305 304 303 302 300 297 296 296 296 296 296 296 295 295 295 295 296 297 297 297 297 297 295 295 294 294 293 293 293 293 293 293 293 293 293 293 293 293 293 293 294 294 295 296 296 297 297 300 304 306 307 308 309 309 310 310 311 311
311 312 311 311 313 314 315 317 318 319 320 321 321 321 321 320 320 319 319 318 318 318 316 315 312 309 306 304 303 302 301 299 297 296 296 296 296 296 296 295 295 295 295 296 296 297 297 296 295 294 293 293 293 293 293 292 293 293 293 293 293 293 293 293 292 293 293 294 295 295 296 296 296 297 298 300 302 304 305 306 307 308 308 309 309
310 310 310 310 311 312 313 315 316 317 318 319 320 320 320 319 319 319 318 318 317 317 315 314 311 308 306 304 302 301 300 297 296 296 296 296 296 296 296 295 295 295 295 295 296 296 296 295 294 293 293 292 292 292 292 292 292 293 293 293 292 292 292 292 292 293 294 294 295 295 295 295 295 295 295 296 297 299 300 302 304 305 306 307 307
309 309 310 311 310 310 311 313 314 316 317 317 318 318 319 318 318 318 317 317 316 316 315 313 311 308 306 304 302 301 299 297 296 296 296 296 296 296 296 295 295 295 295 295 296 296 295 295 294 293 292 292 292 292 291 292 292 293 293 293 292 292 292 292 292 293 294 294 295 295 294 293 293 293 294 294 294 295 295 297 299 301 303 304 304
308 309 309 310 309 309 309 310 312 313 314 316 317 317 317 317 317 317 316 316 315 315 314 313 311 308 306 304 302 300 298 297 296 296 296 296 296 296 295 295 295 294 294 295 295 295 295 294 293 293 292 292 291 291 291 292 292 293 293 292 292 291 291 292 292 293 293 293 294 293 293 293 292 293 293 293 293 293 293 294 295 296 297 298 299
308 308 309 309 309 308 308 308 309 311 312 314 315 315 316 315 315 315 315 314 314 314 313 312 311 308 306 304 302 300 298 296 296 296 295 296 295 296 295 295 294 294 294 294 295 295 294 294 293 292 292 292 292 292 291 291 292 293 293 292 292 291 291 292 292 292 291 291 292 292 292 292 292 292 293 293 293 293 293 293 292 292 292 293 294
307 308 308 308 309 308 308 308 308 308 310 312 313 314 314 313 313 313 312 312 313 313 312 311 310 308 306 304 302 300 298 296 296 296 295 295 295 295 295 295 294 294 294 294 294 294 294 293 292 292 291 292 292 292 291 292 292 292 292 291 291 291 291 291 291 291 291 291 291 291 290 290 290 291 291 291 291 291 291 291 291 290 290 291 291
307 307 307 308 308 308 307 307 307 306 307 309 311 311 311 311 311 310 310 310 311 310 310 310 309 308 306 303 301 299 298 296 296 296 295 295 295 295 295 295 294 294 293 293 293 293 293 292 291 291 291 291 291 291 291 292 292 292 292 291 290 291 291 291 290 290 291 291 290 290 290 289 289 289 289 289 289 289 289 290 289 290 290 290 290
307 307 307 307 307 307 306 306 306 305 305 307 308 309 309 309 308 307 307 308 308 308 308 308 308 307 305 303 301 299 297 296 296 296 296 296 296 295 295 294 294 293 293 293 293 294 293 292 291 291 291 290 290 290 291 292 292 291 290 290 290 290 290 290 290 290 290 290 290 289 289 289 289 289 289 289 288 289 289 289 289 289 289 289 289
306 306 306 306 306 306 306 305 305 304 304 305 306 307 307 306 306 305 306 306 306 305 305 306 306 305 304 302 300 298 297 296 296 296 296 296 296 296 295 294 294 293 293 294 294 294 293 292 291 290 290 290 290 290 291 292 292 290 289 290 289 289 289 289 289 289 289 289 289 289 289 289 288 288 288 288 288 288 288 288 288 288 288 289 289
307 307 306 306 306 306 305 305 305 304 304 304 304 305 306 306 305 305 305 304 303 303 304 304 304 303 302 300 299 298 296 296 296 296 296 296 296 296 296 295 294 293 293 293 293 293 292 291 290 290 290 290 291 290 290 292 292 291 290 290 289 289 289 289 289 288 288 288 288 288 288 288 288 288 288 288 288 288 288 288 288 288 288 288 289
308 307 306 305 305 305 305 305 304 304 303 303 303 304 305 305 304 304 303 302 302 302 302 301 301 300 299 298 298 297 296 296 296 296 296 297 297 297 296 296 295 293 293 292 292 292 291 291 290 290 290 290 291 291 291 292 292 291 292 292 292 291 290 289 289 289 288 288 288 288 288 288 288 288 287 288 288 288 287 287 288 288 288 288 288
308 307 306 305 304 305 305 304 304 304 303 303 303 303 303 303 302 302 301 301 300 300 299 299 299 298 297 297 297 296 296 296 296 296 296 297 297 297 297 296 295 294 293 292 292 291 291 291 290 290 291 291 291 290 291 292 292 293 293 293 291 292 294 293 289 289 289 288 288 288 288 288 288 288 287 287 287 287 287 287 287 288 288 288 288
308 308 307 306 305 305 305 304 304 303 303 302 302 301 301 301 301 300 299 299 298 297 297 297 296 296 296 296 296 296 295 295 296 296 296 296 297 297 297 296 295 294 293 292 292 292 291 291 291 290 291 292 292 291 291 291 292 293 294 294 293 295 297 293 290 290 289 288 288 287 288 288 288 288 287 287 287 287 287 287 287 287 287 288 288
307 308 307 306 306 305 304 304 303 303 302 302 301 301 301 300 300 298 297 297 296 296 296 296 295 295 296 296 295 295 295 295 295 296 296 296 296 296 296 296 295 294 293 292 292 291 291 291 291 291 291 292 293 292 291 291 291 292 293 295 296 297 296 291 290 292 289 287 288 287 288 288 288 288 287 287 286 286 286 287 287 287 287 287 288
305 305 304 304 304 304 303 303 303 303 302 301 301 300 300 300 299 299 298 298 297 297 297 297 296 296 296 295 295 295 295 295 295 295 296 296 296 296 296 296 295 295 294 292 291 291 291 292 291 291 291 291 293 293 292 291 291 291 292 293 293 293 294 292 292 293 292 290 287 286 287 287 288 288 287 286 286 286 286 286 287 286 287 287 287
302 303 303 303 303 302 302 302 302 302 301 301 300 300 300 299 299 299 298 298 298 298 297 297 297 296 295 295 295 294 294 295 295 295 295 295 296 296 296 296 295 295 294 293 292 291 291 291 291 290 290 291 292 293 293 293 292 291 291 291 291 292 293 293 292 293 295 295 290 286 286 286 287 287 287 286 286 286 286 286 286 286 287 287 287
300 301 302 302 302 302 301 301 301 301 301 300 300 300 300 299 299 299 298 298 298 298 298 297 297 296 295 295 294 294 294 294 294 295 295 295 295 296 296 295 295 295 294 293 292 291 291 291 290 290 290 291 291 292 293 294 294 293 292 290 290 290 290 291 290 290 292 295 293 289 287 286 286 286 286 286 286 286 286 286 286 286 287 287 287
299 299 300 301 301 301 300 300 301 301 300 300 300 300 300 299 299 298 298 298 298 298 297 297 297 296 295 295 294 294 294 294 294 294 294 295 295 295 295 295 295 295 295 294 292 291 291 291 291 291 291 291 291 291 292 293 294 294 294 293 291 289 289 288 288 288 289 291 292 290 288 287 288 287 286 285 285 286 286 285 286 286 286 286 286
298 299 299 299 300 300 300 300 300 299 299 300 299 299 299 299 298 298 298 298 298 297 297 297 296 296 295 295 295 294 294 294 294 294 294 294 294 295 295 295 295 295 295 295 293 292 291 291 291 291 290 291 291 291 291 292 294 294 294 294 294 293 292 291 289 288 289 289 291 291 288 286 287 287 286 285 285 285 285 285 285 285 285 286 286
Wind_Speed
28 24 24 23 23 21 19 19 19 18 17 16 15 14 13 13 12 11 10 10 10 10 9 9 9 9 8 8 7 6 6 6 7 7 8 7 6 6 6 6 6 6 6 6 6 6 6 5 5 6 8 9 9 10 10 9 9 9 8 9 10 10 11 11 11 12 12 12 12 11 10 10 10 9 9 10 11 11 11 11 11 11 12 10 9
31 27 25 25 24 22 20 19 19 18 17 16 16 15 14 13 12 11 11 10 9 9 9 9 8 8 7 7 7 6 5 5 5 5 6 6 6 5 5 5 5 5 5 5 5 5 5 5 5 7 8 8 8 8 8 7 7 7 7 9 10 10 10 10 10 10 10 10 10 9 9 9 10 10 10 11 12 11 10 10 10 11 10 8 7
31 29 27 26 24 23 21 20 19 18 17 16 16 15 14 13 12 12 12 11 9 9 9 9 8 8 7 7 6 6 5 5 5 5 5 5 5 5 5 5 6 6 5 4 5 5 6 6 5 6 5 5 5 5 5 5 4 4 5 7 9 9 9 9 9 9 8 8 8 7 8 8 10 11 10 11 11 11 10 9 9 10 10 8 7
31 31 29 27 25 23 22 22 20 19 18 17 16 14 14 13 12 12 12 12 10 9 8 9 8 8 8 7 7 6 6 6 6 5 5 5 5 5 5 5 6 7 6 5 6 6 7 6 4 4 3 3 3 2 2 2 3 3 4 5 7 8 8 8 7 7 7 6 6 5 7 9 10 11 10 10 11 10 10 8 8 9 10 9 8
31 32 30 28 26 24 23 22 21 20 19 18 17 15 14 13 12 12 11 11 10 9 8 8 8 8 8 8 8 7 7 7 8 7 6 6 6 6 5 5 6 6 5 6 7 7 7 5 4 3 1 1 1 2 2 3 3 3 3 3 4 4 4 4 4 4 5 5 5 4 5 7 9 11 9 8 9 9 9 8 7 7 8 8 8
31 33 31 30 27 26 24 23 21 20 19 18 17 16 15 14 13 12 11 11 10 10 9 9 9 9 8 9 8 8 9 8 8 8 7 7 7 6 6 6 6 6 7 7 7 7 5 3 3 3 2 1 0 2 3 3 3 3 3 2 2 3 3 3 3 2 2 3 3 3 4 5 6 9 9 6 6 7 7 7 6 6 7 7 7
31 33 31 31 28 27 25 25 23 20 19 18 17 16 15 14 14 13 12 12 11 11 11 10 10 10 10 10 10 9 9 9 8 8 7 7 6 6 6 6 7 8 8 7 6 6 4 3 3 2 1 2 2 3 3 3 4 4 5 5 5 6 6 6 5 4 3 3 2 2 2 2 3 5 8 7 4 5 5 5 5 5 5 6 6
31 33 32 31 29 28 26 25 23 20 19 19 18 17 16 15 15 14 13 13 13 12 12 12 11 11 12 11 11 10 9 8 8 7 7 7 6 5 6 7 6 6 7 6 5 4 5 4 3 2 2 3 3 3 4 4 5 6 6 7 7 8 8 8 7 7 6 5 4 1 1 1 2 2 5 6 3 3 3 2 2 3 4 5 5
32 33 32 31 29 28 26 24 23 21 19 19 19 17 16 15 15 15 15 14 14 14 14 14 13 12 12 11 11 10 9 8 6 6 6 6 6 5 6 7 6 5 5 4 4 4 5 4 4 4 4 4 4 5 5 5 6 7 8 8 8 8 8 8 8 7 7 7 6 4 2 2 1 2 2 4 3 2 2 1 1 2 4 4 5
32 33 32 31 29 27 26 24 22 21 19 19 19 18 17 16 16 16 15 15 16 15 15 13 12 11 11 10 10 9 8 7 6 5 5 4 5 5 5 7 7 6 5 4 4 3 5 5 5 5 6 5 5 5 6 6 7 8 8 8 8 8 7 7 6 6 6 6 6 5 4 3 2 2 2 3 4 3 1 1 2 3 4 4 5
32 33 32 30 29 27 26 24 22 21 20 20 19 18 17 17 17 17 16 16 16 15 13 12 11 11 11 10 9 8 7 6 7 6 5 5 6 6 6 6 6 7 6 5 4 4 5 5 5 5 5 5 5 5 5 6 6 7 6 6 6 6 6 5 5 4 3 3 4 4 4 4 3 2 4 5 5 3 3 1 2 3 4 4 4
32 32 32 30 29 28 26 24 23 21 20 20 19 19 18 17 17 17 17 15 14 14 13 12 11 11 11 10 9 8 8 7 8 8 7 7 7 7 7 7 7 7 7 6 4 4 4 3 4 4 4 4 4 3 4 4 4 4 4 5 5 5 5 4 4 2 1 1 2 3 4 4 4 4 6 5 5 4 2 1 2 2 3 3 2
31 32 31 30 29 28 27 26 24 23 21 20 19 19 18 17 18 17 17 16 15 14 14 13 12 12 11 11 10 10 10 9 9 9 9 8 8 8 7 7 8 9 9 8 7 5 4 3 3 2 2 2 1 1 2 2 3 3 4 4 5 5 5 5 4 3 2 1 2 4 4 5 5 5 6 5 5 4 4 4 4 3 2 3 3
31 32 31 31 30 29 28 27 26 25 24 22 20 20 20 19 19 19 19 18 16 15 15 14 14 13 13 13 12 12 12 11 10 10 10 9 9 9 8 8 9 11 10 9 8 6 4 3 2 2 1 1 2 2 2 3 3 4 4 5 5 6 6 5 5 4 3 2 3 5 6 6 6 6 5 6 4 4 4 4 4 4 2 2 2
29 32 32 31 30 30 29 28 28 27 26 25 23 21 22 22 20 20 21 20 18 17 16 15 15 14 14 14 14 13 13 12 11 11 11 11 10 10 10 10 11 11 11 9 8 6 5 4 3 3 3 3 3 3 3 4 4 5 5 6 6 6 6 6 6 5 3 3 4 5 6 7 7 6 5 5 4 3 2 3 2 3 2 2 2
28 30 32 32 31 31 30 29 29 29 28 26 26 24 23 23 22 21 22 21 19 18 17 17 17 16 15 15 15 15 15 13 13 13 12 12 11 11 12 12 12 12 11 10 8 8 6 5 4 4 3 3 3 4 4 4 5 6 6 6 7 7 7 7 6 5 4 3 3 5 6 7 7 6 5 5 4 4 1 2 1 2 1 2 3
28 30 32 32 32 32 31 31 30 30 29 27 28 27 25 24 23 23 22 21 20 20 19 19 19 18 17 16 16 17 17 16 15 14 14 13 12 12 12 12 13 12 11 10 9 9 7 6 5 4 4 4 3 4 4 4 5 6 6 7 7 7 7 7 6 5 4 2 2 4 6 7 6 5 5 4 4 3 1 2 2 2 2 2 3
28 30 31 32 33 33 32 32 31 31 30 29 28 28 27 26 24 24 24 22 22 21 21 20 20 19 18 18 18 19 19 17 16 15 15 14 14 14 13 13 13 12 12 11 11 9 8 7 6 5 5 4 4 3 3 3 4 4 5 6 6 7 7 6 5 5 3 2 2 4 6 7 5 4 4 4 3 1 1 2 2 2 3 3 4
28 30 31 32 33 33 33 33 32 32 31 30 29 28 28 28 27 26 26 24 24 23 22 22 21 20 19 20 21 21 19 17 17 16 16 15 15 15 14 14 13 14 14 13 11 10 9 8 7 6 5 5 4 3 2 2 1 2 2 3 4 5 5 6 5 4 3 1 1 3 6 7 5 3 3 3 1 1 2 2 3 3 4 4 5
28 30 32 33 33 34 34 34 33 33 32 31 30 29 28 29 28 28 27 26 25 24 24 24 23 22 22 22 22 22 20 19 18 17 17 17 17 16 15 15 15 15 14 13 11 11 10 8 7 6 5 4 3 2 1 0 0 1 2 2 3 4 4 4 4 4 3 1 0 3 5 7 5 3 3 2 0 2 3 3 3 3 4 4 5
29 31 33 34 34 34 35 35 34 34 33 32 31 30 30 29 29 28 27 27 27 26 26 26 25 25 24 24 24 23 22 20 19 19 19 18 18 17 16 16 16 15 14 12 11 10 9 8 7 6 4 3 2 2 1 1 1 2 2 2 3 3 4 4 4 3 3 2 1 1 3 5 4 4 3 3 1 1 2 3 3 3 3 4 5
31 33 34 35 35 35 35 35 35 35 34 34 33 32 31 31 30 29 28 28 28 28 28 28 28 27 26 26 26 25 23 22 21 21 20 19 18 18 17 17 16 15 14 12 11 10 9 8 7 5 4 3 3 2 2 2 2 2 3 3 3 4 4 4 4 4 3 2 2 1 3 4 4 4 4 4 4 2 2 1 1 2 2 3 3
32 35 37 37 37 37 36 37 36 36 36 35 35 33 33 32 31 30 30 29 28 29 30 30 30 29 29 28 27 25 24 23 22 21 20 19 19 19 18 17 17 16 14 13 11 11 10 8 7 6 5 4 4 3 3 3 3 3 3 4 4 4 5 5 5 4 4 3 2 1 2 3 4 5 5 5 6 5 6 6 6 6 6 6 5
37 38 38 38 39 39 38 38 37 37 37 36 36 35 34 34 33 32 32 31 31 31 31 32 31 30 30 29 27 26 24 23 23 22 21 20 20 20 20 19 18 17 16 14 13 12 10 9 8 7 6 6 5 5 4 4 4 3 4 4 4 4 5 5 5 5 5 5 4 3 2 2 3 4 5 6 7 7 8 8 8 9 9 8 9
36 34 34 38 40 41 40 39 39 38 38 38 37 36 35 35 35 35 33 33 33 33 33 33 33 32 31 29 28 26 25 25 24 24 23 22 23 23 22 21 19 18 16 14 13 12 11 10 9 9 8 8 7 6 5 5 4 4 4 4 4 4 4 4 5 5 5 5 5 4 3 2 2 4 5 7 7 8 8 8 8 9 9 9 9
30 31 36 40 41 42 42 41 40 40 40 39 38 37 37 36 37 36 35 34 34 35 35 35 35 33 31 30 28 27 27 26 26 25 25 25 25 24 23 21 20 18 16 14 13 13 12 11 11 10 9 9 8 7 6 5 5 4 4 3 3 3 3 4 4 4 4 4 4 4 3 2 2 3 5 7 8 8 8 9 9 9 9 10 10
32 35 38 39 40 42 43 42 42 42 42 40 39 38 38 38 38 37 37 36 36 36 37 37 36 34 32 31 30 29 28 28 28 27 27 27 26 25 24 21 20 18 16 15 15 14 13 12 12 11 10 9 8 7 7 6 5 4 3 3 3 2 2 3 3 3 3 3 3 2 2 3 3 5 6 8 9 9 9 9 9 9 10 10 10
34 38 38 37 40 42 44 44 44 44 43 42 41 40 40 40 39 39 39 38 38 39 39 38 37 35 34 33 31 30 29 29 29 29 28 28 27 26 24 22 21 19 18 18 16 15 14 13 12 11 10 9 8 7 7 6 5 4 3 3 2 2 2 2 3 3 3 2 2 1 1 2 4 6 7 9 10 10 10 10 10 9 9 10 11
36 41 38 39 41 41 43 45 46 46 44 44 43 42 42 42 42 41 41 41 41 40 40 39 38 36 35 34 33 32 31 31 30 30 29 29 28 26 24 23 22 21 20 19 17 16 14 13 12 11 10 9 9 8 7 7 6 5 4 3 2 2 2 3 3 3 3 2 1 0 1 2 5 7 9 10 11 11 10 10 10 9 10 11 11
42 41 39 42 42 40 43 45 47 47 46 45 45 45 45 44 44 44 44 43 43 42 40 40 39 38 37 36 34 33 32 32 31 31 30 30 29 27 25 24 23 22 21 20 18 16 15 14 13 12 11 10 10 9 8 7 6 5 4 3 2 2 2 3 3 3 2 1 1 2 2 3 5 7 9 10 11 12 12 11 10 10 10 11 11
41 38 41 44 41 41 44 45 47 47 47 47 47 47 46 47 46 46 46 45 44 43 42 41 40 39 38 37 36 34 33 33 32 32 31 30 29 28 26 25 25 23 22 20 19 18 16 15 14 13 12 11 10 10 9 7 6 5 4 3 2 2 2 3 2 2 1 1 2 4 5 5 6 8 10 11 12 13 13 13 12 11 12 11 11
40 41 44 41 40 43 45 45 46 47 47 49 49 49 48 48 47 47 47 47 46 45 44 44 42 41 39 38 37 36 35 34 33 33 32 31 30 29 27 26 26 24 23 22 21 20 18 17 16 15 14 13 12 11 10 8 6 5 4 3 2 2 2 2 2 1 1 2 4 5 7 7 8 9 11 12 13 13 14 15 15 14 13 13 12
41 43 39 37 41 44 44 44 44 46 49 50 50 50 50 49 49 49 48 47 47 47 47 46 44 43 41 40 38 37 36 36 35 34 33 32 31 30 28 28 27 25 25 24 22 21 20 19 18 17 16 14 13 12 11 9 8 6 4 3 2 2 2 1 1 1 3 4 6 7 8 9 9 9 10 11 11 12 12 13 14 15 15 14 12
39 36 35 38 42 41 42 43 44 47 49 50 51 51 51 50 50 49 49 48 48 48 48 47 46 44 43 41 40 38 38 37 36 36 34 33 32 31 30 29 28 27 26 25 24 23 22 21 19 18 17 15 14 13 11 10 8 6 4 3 2 1 1 1 2 3 5 6 8 8 9 9 9 9 9 10 10 10 10 11 12 13 14 14 12
35 34 37 40 40 39 41 43 45 47 49 50 51 52 51 51 50 50 50 50 49 49 49 49 48 46 45 43 41 40 39 39 38 37 36 35 34 32 31 31 30 29 28 27 26 25 23 21 20 19 18 17 15 14 12 11 8 6 4 3 2 2 2 3 4 6 7 8 9 9 10 9 9 9 9 9 9 10 10 10 11 12 12 11 10
34 36 38 37 37 39 40 42 44 47 49 51 51 51 50 49 49 49 50 50 49 50 50 50 49 48 46 45 43 42 41 41 40 39 38 37 36 34 33 32 31 31 30 29 27 26 24 22 21 20 19 18 17 15 13 11 9 7 5 4 3 4 5 6 7 8 9 10 10 10 10 10 10 10 10 10 9 9 9 9 9 9 10 9 8
34 35 36 36 38 39 40 42 44 46 49 50 50 49 49 48 48 47 47 48 49 50 50 50 49 49 48 47 45 44 43 42 41 41 39 38 37 35 34 33 33 33 32 30 29 27 25 24 23 21 20 19 18 17 14 12 9 7 6 5 5 6 7 9 9 9 11 11 11 11 11 10 10 9 9 9 8 8 7 7 7 7 8 8 7
32 33 35 36 38 39 40 43 44 45 46 47 48 47 46 45 44 44 45 47 49 50 49 50 50 50 49 48 46 45 44 44 43 42 41 39 37 36 35 35 35 34 33 32 30 28 26 25 24 23 21 20 19 17 15 13 10 8 7 6 8 9 10 10 11 12 13 12 12 12 11 10 9 8 8 7 7 6 6 6 6 6 6 7 7
30 31 33 35 37 38 39 41 42 43 43 43 43 42 41 41 41 41 42 45 47 48 48 50 51 51 50 49 48 46 46 45 45 44 42 40 38 37 37 36 37 36 34 33 31 30 29 27 26 25 23 20 18 17 15 13 11 8 8 9 10 11 12 12 13 14 14 13 13 12 11 10 9 7 7 6 6 5 6 5 6 6 6 7 7
28 29 31 33 36 37 38 39 41 41 40 39 39 39 39 39 39 39 42 46 47 47 48 50 51 52 52 51 49 48 47 47 46 45 44 42 41 40 39 38 37 37 36 36 34 33 32 30 28 27 25 22 20 18 16 15 14 12 11 13 13 13 14 14 14 14 14 13 13 12 11 9 8 7 6 5 5 5 5 6 6 6 6 6 6
25 28 30 33 35 36 37 39 40 40 40 40 41 42 42 41 40 43 48 48 47 46 47 49 50 51 51 50 50 49 48 48 47 46 45 44 42 41 40 39 38 38 38 37 36 34 33 31 30 28 26 24 22 20 18 17 15 14 12 13 14 15 15 15 15 14 13 12 12 12 11 9 8 7 5 5 5 5 5 5 5 6 6 7 7
25 27 30 32 34 35 38 38 38 39 42 43 43 44 46 46 45 47 48 45 45 47 48 49 49 49 49 49 49 49 48 49 48 47 46 45 44 42 40 40 39 39 39 37 36 35 34 33 31 29 26 24 23 22 22 19 13 13 13 10 9 10 12 13 13 12 11 10 12 12 11 9 8 7 6 5 5 4 4 4 5 6 6 7 7
24 27 29 30 31 34 36 36 36 39 42 43 44 45 45 43 41 40 39 37 39 43 44 44 45 46 46 47 47 48 49 49 48 48 47 46 45 43 41 40 40 41 40 39 38 37 36 35 33 31 28 25 22 23 25 20 13 16 14 7 3 4 5 7 9 10 9 9 10 10 8 6 6 6 5 4 3 3 3 4 6 6 6 7 8
22 25 27 28 30 33 35 36 37 39 40 42 43 42 38 37 35 33 32 33 33 36 37 38 41 43 43 45 47 48 48 49 49 48 47 47 45 44 43 42 42 42 42 42 41 40 39 37 35 33 31 27 23 23 27 22 18 17 9 3 2 2 2 6 9 9 9 11 9 8 7 5 4 4 3 1 1 2 4 6 7 7 7 8 9
22 24 25 26 29 31 33 35 36 37 38 40 40 37 34 33 32 27 25 27 26 28 33 37 38 40 43 46 47 48 48 49 49 49 48 48 47 46 45 44 44 43 43 44 43 42 41 39 38 36 34 31 27 25 26 25 23 19 10 4 3 1 1 4 7 7 10 13 11 10 9 6 4 1 1 0 1 3 6 7 8 8 8 9 11
22 22 22 23 25 28 29 32 34 35 36 37 38 37 36 35 34 31 28 27 26 30 38 40 39 41 44 46 46 48 49 49 49 49 48 48 47 46 46 45 45 45 45 44 44 43 42 41 40 39 37 33 29 26 26 26 25 22 16 10 6 3 4 7 5 2 7 12 12 11 11 9 7 2 1 2 1 4 7 8 10 9 8 10 12
21 20 20 19 21 23 25 28 31 33 33 35 36 37 37 36 37 36 34 33 33 35 39 38 38 42 42 42 45 47 48 49 49 48 48 48 47 46 46 45 45 45 45 45 45 44 43 42 41 41 38 34 30 27 28 27 25 21 19 16 11 7 9 10 6 2 2 7 11 12 12 11 9 4 2 3 3 6 9 10 10 9 9 11 13
22 21 18 16 17 19 21 24 27 30 31 32 35 36 37 36 37 36 35 36 36 33 32 32 34 37 37 38 42 44 46 47 47 47 48 47 47 47 46 45 45 45 45 45 46 45 44 43 42 42 40 37 32 29 29 29 26 22 20 17 12 11 14 13 10 7 3 1 5 9 11 11 9 6 4 3 5 9 12 11 10 10 10 11 13
25 23 19 15 13 14 17 19 23 26 28 30 33 35 37 36 36 36 34 34 32 28 27 29 31 33 35 37 38 41 44 45 46 47 47 47 47 47 46 46 45 45 45 45 45 45 44 44 44 43 42 40 36 30 28 30 29 26 22 19 14 13 13 11 11 9 4 2 3 3 6 8 7 7 6 4 6 11 13 11 10 10 10 11 13
25 23 21 17 13 10 11 14 18 22 25 28 31 34 35 35 35 35 33 31 29 27 25 27 30 32 34 35 37 39 42 44 45 46 47 47 47 47 46 46 46 45 44 44 45 45 45 45 45 44 43 42 39 33 29 29 30 28 25 23 20 16 11 7 10 11 5 2 1 1 6 8 5 7 8 5 7 12 13 12 11 11 10 11 14
29 26 22 19 16 11 8 10 13 16 20 24 27 30 33 34 34 34 33 31 29 28 27 28 30 32 34 36 37 38 40 43 45 45 46 47 47 47 46 46 45 45 45 45 46 46 46 46 45 44 43 43 40 35 31 29 29 29 26 25 24 21 16 12 15 18 11 5 3 2 5 9 6 6 8 7 8 12 14 14 14 12 9 12 14
Wind_Direction
190 181 182 178 177 177 178 181 182 183 182 183 182 183 182 181 178 175 171 165 162 159 159 156 153 150 146 145 141 138 135 131 131 134 138 138 137 130 124 117 102 95 89 86 87 91 94 94 96 101 96 93 90 86 84 85 86 81 79 73 70 74 74 76 79 83 83 83 84 91 95 89 84 85 92 90 87 83 78 74 69 66 61 55 53
184 179 181 178 180 178 177 182 183 184 184 185 184 185 185 185 184 183 181 176 173 168 165 160 156 153 150 146 145 147 144 141 139 140 142 141 138 128 130 123 107 96 88 95 97 100 106 106 110 110 104 107 105 97 96 95 89 78 71 64 67 73 73 74 76 82 86 87 85 85 88 89 86 86 96 94 88 84 79 74 67 65 60 55 56
179 179 180 179 182 178 176 181 183 185 186 187 186 186 186 187 189 190 186 184 183 180 173 168 163 158 155 151 151 153 153 149 140 140 145 149 148 141 142 137 131 122 110 118 121 122 127 128 131 125 115 115 112 102 100 97 88 77 70 62 70 77 73 72 70 73 79 85 83 80 82 85 87 88 95 95 91 84 73 69 67 64 60 59 58
180 180 180 180 183 179 178 182 184 186 188 189 189 189 190 189 193 195 191 187 185 182 177 171 168 164 162 157 158 156 152 146 140 140 139 144 148 149 149 147 148 139 130 129 130 129 127 138 150 144 135 118 107 90 83 72 56 55 62 62 72 77 70 67 63 62 63 71 75 74 80 81 87 90 95 97 94 87 73 63 65 60 57 59 57
182 182 181 181 184 183 180 182 187 188 190 191 191 193 195 193 195 198 199 194 184 180 178 175 171 168 166 161 161 159 154 145 143 143 135 135 136 141 147 145 149 145 141 133 128 125 118 136 157 150 162 153 108 27 23 21 20 23 33 49 61 62 52 46 41 46 47 53 56 61 82 82 84 86 90 102 100 90 77 58 53 55 51 53 51
184 184 182 182 186 186 183 183 187 190 192 194 194 196 198 199 199 199 202 201 187 182 181 179 177 173 171 165 166 164 160 152 146 146 138 137 133 134 141 135 131 127 127 126 125 125 123 147 170 150 163 201 233 354 355 352 350 341 331 330 339 347 340 340 346 348 5 29 42 50 76 89 88 80 75 91 112 102 86 61 43 44 40 37 40
185 186 183 184 187 188 187 185 185 190 193 194 196 198 199 200 202 201 201 199 190 186 185 184 184 179 177 172 171 168 161 155 149 150 147 145 139 129 137 135 125 124 123 123 125 137 156 177 192 171 167 239 294 327 325 315 309 301 297 297 303 305 308 307 303 301 301 310 340 35 53 90 105 87 67 64 107 116 97 76 48 34 27 25 30
185 187 186 185 189 189 190 188 185 188 191 194 196 199 200 200 201 201 199 196 192 190 189 190 188 182 181 178 173 168 161 156 150 159 162 153 155 144 143 143 132 137 136 133 133 159 189 188 195 213 234 269 297 305 299 297 293 290 289 291 296 297 299 298 294 291 284 286 286 285 324 85 119 135 76 57 71 105 98 94 68 34 26 30 40
185 188 187 188 190 190 191 189 187 188 189 194 195 198 198 199 201 201 198 194 194 194 196 195 188 183 183 178 172 167 163 161 156 172 179 161 163 169 164 159 152 158 158 151 139 169 203 206 217 237 254 274 287 290 292 294 293 294 298 300 302 302 301 299 295 291 284 280 273 261 246 233 164 180 108 57 31 35 67 66 55 44 44 39 45
185 188 189 190 191 191 191 188 189 189 189 192 193 197 197 198 201 198 196 196 197 198 199 195 183 182 180 176 173 171 171 172 175 180 185 182 174 176 172 171 170 170 172 155 141 189 223 238 248 255 265 275 282 286 292 294 299 302 307 312 312 312 310 307 301 294 287 277 267 255 235 223 203 173 109 55 25 347 335 43 36 53 64 52 37
186 189 190 191 192 192 191 188 191 193 193 196 195 196 196 197 200 197 196 198 198 194 190 187 181 181 182 182 179 182 190 188 198 202 199 203 194 182 171 175 179 167 162 147 150 219 241 250 255 262 268 272 278 282 292 298 306 313 321 326 329 331 329 326 318 307 289 270 257 242 227 211 193 127 80 64 50 359 298 329 41 70 80 66 40
187 190 191 192 193 193 192 191 192 194 196 199 197 196 194 194 196 195 195 192 190 189 186 187 189 189 194 195 192 202 210 207 218 225 212 199 193 188 178 178 181 174 178 183 201 237 249 258 259 261 264 267 275 283 301 312 325 338 351 359 2 5 3 2 357 357 344 234 213 205 200 192 173 103 76 73 66 40 7 50 81 104 102 83 73
189 191 192 193 194 194 194 193 194 194 194 197 198 196 193 193 193 192 193 190 189 193 194 196 197 197 203 204 206 215 214 214 225 220 205 196 190 189 184 183 193 203 211 216 226 238 246 252 250 247 255 262 284 331 356 7 16 17 21 24 27 29 30 29 28 35 52 105 149 162 162 164 146 105 80 76 70 58 70 85 87 103 133 106 107
191 192 193 194 195 196 195 196 197 196 195 197 199 198 195 196 199 198 197 196 200 209 207 204 206 208 210 209 210 213 211 216 220 206 197 198 194 190 185 188 205 217 220 221 226 228 229 226 218 199 160 101 79 68 60 50 43 39 33 29 30 32 35 37 41 50 64 96 129 142 148 147 126 105 85 82 75 65 93 112 97 96 124 128 131
196 195 195 196 196 197 198 199 200 200 199 199 200 201 201 203 205 206 205 202 206 214 212 208 214 216 213 211 210 208 211 212 207 198 196 198 195 193 197 204 213 217 218 220 219 214 207 194 170 145 125 104 90 74 59 45 39 34 29 25 24 24 25 29 36 46 66 96 128 140 146 145 118 94 81 85 77 63 114 153 132 123 134 180 212
200 198 197 198 199 199 201 202 204 204 203 201 201 202 204 207 207 211 213 210 209 210 209 210 213 215 211 209 208 207 207 202 197 196 196 197 196 202 211 214 212 212 215 214 209 203 193 170 150 135 120 105 88 66 50 35 28 21 17 17 14 15 16 19 25 31 47 78 128 145 150 148 118 83 73 83 78 65 148 178 169 198 192 228 243
201 201 201 201 202 203 205 206 207 208 207 205 205 204 204 206 208 212 214 210 209 209 209 211 211 210 207 204 203 204 203 196 195 196 195 196 198 207 212 209 208 208 208 204 197 190 177 160 150 138 124 105 88 68 51 35 23 14 8 4 3 4 5 11 17 23 36 62 126 155 156 148 121 86 73 76 75 68 176 205 209 240 272 274 269
203 204 205 205 205 206 208 209 209 210 211 211 210 210 207 206 207 212 212 207 208 210 209 211 209 205 202 200 200 202 199 194 195 195 194 195 197 204 205 201 198 197 195 192 185 175 166 159 152 143 134 120 106 89 69 49 26 11 359 353 350 349 351 356 1 13 26 52 122 165 161 151 130 95 74 68 77 102 216 230 244 257 286 294 292
206 207 208 209 209 210 210 211 212 212 214 214 214 213 208 207 208 211 211 206 207 210 207 209 208 203 201 201 201 202 198 194 194 193 194 195 195 196 194 190 186 184 186 183 176 168 164 161 156 150 141 132 121 110 92 75 33 0 342 335 332 333 334 338 344 354 5 29 125 163 164 158 144 106 73 63 81 223 236 252 265 271 284 293 297
209 210 210 212 212 212 213 213 215 215 216 215 215 214 209 208 209 211 210 206 206 208 206 207 208 205 204 204 204 204 200 196 196 195 196 197 195 190 184 183 183 183 184 179 172 168 166 162 157 151 143 136 127 125 121 112 304 301 302 307 309 314 316 319 324 330 336 341 167 160 159 158 146 104 68 53 303 246 250 261 277 286 291 295 300
211 212 213 213 213 214 215 215 216 216 216 215 214 213 210 209 210 210 209 207 206 207 206 207 209 207 206 206 207 206 203 200 199 200 200 199 197 191 184 183 186 186 184 179 173 170 166 162 158 153 149 147 148 163 191 227 258 277 284 294 299 303 304 307 309 310 312 306 276 182 161 156 136 88 64 53 29 265 262 266 276 292 305 305 301
213 214 215 215 215 215 216 216 216 215 215 214 214 213 211 210 210 209 207 207 207 207 207 208 209 208 208 208 208 208 208 206 205 206 205 203 198 194 187 185 190 189 185 182 177 174 170 167 165 162 163 169 181 197 216 231 254 267 275 285 290 294 298 300 301 303 303 297 279 206 170 159 132 80 61 56 50 50 41 28 4 7 14 354 325
215 216 217 216 215 216 216 217 217 216 215 215 214 214 212 210 210 209 207 208 208 208 208 209 211 210 209 210 210 211 211 210 210 210 209 204 199 195 189 186 189 190 188 186 180 178 177 175 173 175 181 186 196 208 220 232 246 258 269 276 280 285 288 289 290 293 294 295 293 245 178 161 140 86 62 60 54 59 64 63 66 67 63 54 43
219 219 218 216 216 217 217 217 217 216 216 215 215 215 214 212 211 210 209 208 209 209 210 211 212 213 212 212 213 213 213 213 212 212 210 204 198 195 191 189 191 191 191 189 186 185 183 182 182 185 191 193 199 205 211 222 230 242 253 261 268 273 276 279 282 285 287 288 288 277 246 182 148 100 68 63 62 66 71 70 73 73 72 69 64
222 221 220 219 218 218 218 217 217 217 217 216 216 215 214 213 211 211 210 209 211 210 211 212 213 215 215 215 215 215 215 214 213 211 208 204 199 197 196 196 195 195 196 194 191 188 185 186 189 189 191 191 194 196 199 209 217 225 235 246 255 261 269 275 280 283 283 282 279 276 265 233 174 115 75 66 67 71 75 75 77 76 76 75 72
223 223 224 223 221 219 218 217 218 217 218 218 218 217 215 214 213 212 210 210 212 212 212 213 215 216 217 216 215 215 215 213 212 210 208 204 202 201 200 200 197 198 197 194 192 188 188 190 191 190 188 187 187 189 192 198 203 212 221 230 243 253 266 274 284 288 288 286 279 272 257 236 193 132 87 72 73 75 79 79 80 80 80 80 78
225 228 228 225 223 221 219 218 219 219 219 219 218 219 217 217 216 214 212 211 212 212 213 214 215 217 217 218 217 216 214 212 212 210 208 205 205 204 203 201 198 198 195 192 194 192 192 193 191 189 185 184 184 185 185 189 191 194 201 210 229 249 270 285 301 304 308 305 296 282 248 220 183 140 98 79 78 79 81 83 83 82 81 82 81
228 230 229 226 225 223 220 219 220 220 219 218 218 219 219 219 218 216 215 214 214 214 215 215 217 218 218 219 218 217 216 213 212 211 209 207 207 206 203 202 199 198 196 194 197 196 195 193 190 186 182 183 182 183 180 180 181 179 186 198 219 251 288 312 322 325 330 332 324 306 241 196 169 146 116 88 82 84 85 86 86 82 80 81 80
231 232 229 228 228 225 222 221 221 220 219 219 218 219 220 220 219 217 217 217 217 216 216 217 218 218 219 219 219 218 217 215 213 211 209 208 208 206 204 202 199 198 198 196 197 199 197 192 188 185 183 183 182 182 178 176 177 178 187 203 230 270 311 327 334 336 340 347 358 353 191 164 160 152 133 104 87 88 88 88 86 82 81 78 77
234 233 230 230 229 225 224 223 222 221 219 219 219 220 220 220 219 219 218 218 218 218 218 219 219 219 219 220 220 219 218 216 215 212 210 210 208 206 204 202 200 199 199 199 197 200 200 194 189 187 185 183 183 180 177 177 177 180 190 209 236 276 320 333 338 344 353 14 79 120 134 146 153 153 141 118 97 90 88 88 88 83 79 76 76
235 232 232 232 228 226 227 225 223 221 219 220 221 221 221 221 220 220 220 219 219 219 219 220 220 221 221 221 221 220 219 218 217 215 212 211 209 207 205 202 201 201 200 200 199 197 198 196 191 188 187 183 181 178 177 180 181 186 197 219 248 298 328 335 342 351 15 83 127 136 137 133 138 145 139 122 101 90 86 85 86 82 78 76 77
233 233 234 230 227 228 228 226 223 220 219 221 222 221 222 222 221 221 221 221 220 219 219 220 220 221 222 221 222 220 219 218 218 217 215 213 211 208 206 204 203 202 200 201 200 197 195 194 191 188 187 183 182 178 176 179 187 191 199 223 256 297 321 329 332 356 112 140 142 143 143 137 131 135 135 125 109 99 94 89 84 80 78 79 77
235 236 233 229 230 229 227 225 223 221 221 222 222 221 222 222 222 222 222 221 220 220 220 220 221 221 222 221 222 221 219 218 217 218 217 215 213 210 208 206 205 203 202 201 201 199 195 192 189 187 186 182 182 180 176 180 188 193 200 220 247 279 306 313 274 166 153 153 153 149 145 142 136 133 136 135 128 121 116 106 93 85 82 81 79
238 235 232 232 233 228 225 224 223 223 223 222 221 221 222 222 222 222 221 221 220 221 221 221 221 221 221 221 221 220 219 219 218 217 217 215 214 212 210 208 205 204 203 202 202 201 196 192 189 187 184 183 184 181 179 182 186 189 193 211 232 240 246 199 174 159 158 156 153 151 145 142 140 137 137 139 141 137 134 131 120 107 98 90 83
238 234 236 237 233 228 225 224 223 224 223 222 222 221 222 221 222 221 221 221 221 221 221 221 221 221 221 220 220 220 219 218 218 217 216 215 214 212 211 209 206 205 204 204 203 201 196 192 190 188 185 184 185 181 180 185 186 187 190 199 202 175 163 163 159 153 154 154 150 148 143 140 140 141 141 142 143 140 140 143 141 136 129 115 104
242 237 238 236 233 231 228 225 224 223 223 223 222 221 221 221 221 221 221 221 221 221 221 221 221 221 221 221 220 219 218 218 218 217 216 215 214 213 212 209 207 206 205 204 203 200 195 192 191 191 188 186 186 183 181 185 184 182 184 182 167 156 154 151 150 147 147 149 146 142 138 137 139 142 145 146 146 145 143 146 151 154 152 147 141
248 242 238 235 233 232 228 227 226 226 224 222 221 220 220 219 220 220 220 221 221 221 221 221 221 221 221 221 220 219 218 218 218 217 217 216 214 213 212 209 208 206 205 204 203 200 196 193 192 192 192 190 189 185 180 181 181 178 175 169 155 149 151 149 144 141 142 143 140 137 136 135 138 140 142 145 146 150 153 154 159 165 164 160 159
252 247 242 238 236 233 229 228 228 226 224 221 220 219 218 218 219 220 220 221 222 222 221 221 221 221 221 221 220 219 219 218 218 217 217 217 215 214 212 210 208 206 205 204 202 199 196 195 194 192 193 194 192 188 181 176 172 168 159 151 150 149 151 149 143 140 141 141 137 135 133 132 135 135 135 138 141 148 157 162 165 171 173 169 166
255 249 244 240 237 233 230 229 227 224 222 220 218 216 216 216 217 218 220 221 222 221 221 221 222 221 221 221 221 220 219 219 218 218 217 216 215 214 213 210 207 206 205 204 201 199 196 195 195 194 192 192 193 189 179 169 159 154 148 138 141 147 148 147 145 145 147 144 141 138 136 135 134 132 131 131 135 141 148 153 158 165 168 171 171
256 250 244 238 234 231 229 227 225 222 219 216 213 212 212 213 214 214 217 220 220 220 220 222 222 222 222 222 221 220 220 219 218 218 217 217 215 214 212 209 208 207 205 205 203 201 198 195 195 195 192 189 188 184 177 168 149 129 129 134 138 144 145 146 147 147 149 150 148 146 144 142 136 133 133 134 140 144 145 144 146 151 153 159 163
258 250 242 237 234 230 227 225 222 219 215 212 210 208 207 207 208 211 215 217 217 217 219 220 221 222 222 221 220 219 219 219 218 218 217 217 215 213 211 208 208 208 208 208 206 203 200 197 195 195 195 190 184 179 175 168 146 122 118 124 131 139 142 144 147 147 145 148 153 153 147 143 138 130 129 142 155 153 149 147 142 145 143 144 144
263 254 245 240 236 230 227 225 221 216 214 213 210 209 209 208 208 212 214 215 215 216 217 219 219 220 220 220 219 218 218 218 218 217 217 216 215 212 211 209 209 208 209 209 207 204 201 199 197 193 194 191 186 181 175 169 158 146 139 125 121 137 144 146 148 147 144 143 150 153 146 138 132 122 119 137 160 165 161 158 148 146 144 139 133
266 260 253 246 238 231 228 225 220 217 215 213 211 211 212 211 211 213 214 213 216 217 217 219 219 219 219 218 218 218 217 218 218 217 216 216 215 214 212 211 210 209 208 207 206 205 202 200 199 195 192 189 188 185 181 179 174 158 146 134 140 150 161 174 173 170 171 166 163 164 158 144 127 117 119 124 151 179 174 163 157 150 147 140 128
264 260 255 248 240 234 230 225 222 219 215 213 213 212 212 211 212 216 216 214 217 218 217 220 220 219 218 218 218 218 218 218 218 217 216 216 216 216 215 213 212 211 209 208 206 205 204 202 199 197 193 188 187 187 188 189 178 164 147 100 125 155 211 207 195 201 206 196 191 192 189 172 140 120 128 112 82 157 162 158 158 154 150 140 128
266 264 259 252 246 241 235 228 223 220 216 214 211 209 207 206 206 210 211 210 213 213 212 217 218 216 217 217 217 217 217 218 218 218 217 218 218 217 216 215 213 211 210 210 209 207 206 204 201 199 198 195 191 187 191 195 186 179 173 140 128 200 232 168 174 206 217 206 204 209 211 207 189 135 128 156 41 136 153 155 156 154 150 141 129
275 278 275 264 255 248 240 231 224 220 217 213 209 206 205 202 199 197 195 196 201 206 209 212 212 214 217 217 217 217 218 218 218 218 218 218 218 217 216 215 213 211 210 210 210 209 207 206 204 202 202 201 197 190 191 195 194 195 197 191 194 211 167 146 149 204 217 212 216 220 226 228 225 234 132 182 189 159 156 156 157 155 151 144 134
292 295 294 286 269 254 243 233 226 221 217 213 208 205 203 202 201 199 198 198 202 210 213 213 214 215 216 216 216 216 217 217 217 217 217 217 217 217 216 216 214 212 210 209 209 210 210 208 207 205 204 203 200 197 195 194 194 202 208 208 210 202 171 161 168 165 180 214 221 223 230 231 230 240 203 196 191 167 162 160 160 160 159 150 140
315 314 311 304 287 266 248 236 228 222 217 213 208 205 204 203 204 205 207 208 210 214 215 214 216 215 214 215 215 215 216 216 216 216 216 217 217 216 216 215 215 213 211 211 211 212 212 210 208 207 206 204 204 205 203 197 193 197 201 201 203 193 179 176 184 181 152 180 205 215 224 223 229 232 207 204 190 171 164 164 167 167 167 159 148
342 337 333 326 310 282 258 239 228 222 217 214 210 208 208 207 207 208 211 214 216 218 217 215 216 215 213 214 215 215 215 214 215 216 216 216 216 216 216 215 215 215 213 213 213 213 213 212 210 208 207 207 207 209 212 207 202 200 197 193 186 178 179 184 186 181 168 157 172 195 200 202 221 216 196 186 179 173 168 169 175 175 174 169 161
2 356 351 346 338 311 273 247 232 224 219 216 213 211 210 209 210 211 213 216 216 217 218 215 214 213 212 212 214 214 214 214 214 215 215 215 216 216 216 216 216 217 216 215 214 213 214 214 214 212 210 210 209 210 215 215 211 208 204 197 186 174 171 178 187 184 170 154 175 167 178 182 190 195 196 187 172 174 174 174 179 182 185 179 173
16 12 6 360 353 340 306 269 245 232 224 219 216 214 213 212 214 215 216 218 216 214 214 212 211 210 209 211 213 214 215 215 214 214 215 215 215 215 216 217 217 218 217 216 215 216 216 216 216 215 213 212 211 212 215 216 214 211 209 206 201 196 194 198 201 195 184 171 172 148 178 185 181 191 199 189 177 180 178 179 184 189 193 188 185